Regional Weather Roundup
Issued by NWS Sterling, VA

Home | Current Version | Previous Version | Graphics & Text | Print | Product List | Glossary On
Versions: 1 2 3 4 5 6 7 8 9 10 11 12 13 14 15 16 17 18 19 20 21 22 23 24 25 26 27 28 29 30 31 32 33 34 35 36 37 38 39 40 41 42 43 44 45 46 47 48 49 50
000
ASUS41 KLWX 252011
RWRLWX

REGIONAL WEATHER ROUNDUP
NATIONAL WEATHER SERVICE BALTIMORE MD/WASHINGTON DC
400 PM EDT MON JUL 25 2016

Note: "FAIR" indicates few or no clouds below 12,000 feet
with no significant weather and/or obstructions to visibility.
 TC=TEMPERATURE CELSIUS

 * =Non NWS site. Station does not report precipitation (e.g. rain,
    snow, etc.), thunder, or fog.

DCZ001-MDZ009-015-VAZ040>042-051-053>054-252100-
WASHINGTON METRO

CITY           SKY/WX    TMP DP  RH WIND       PRES   REMARKS
WASHINGTON NAT PTSUNNY   99  74  44 S15       29.86F HX 110
DULLES         PTSUNNY   99  70  38 SW14G23   29.86F HX 106
ANDREWS AFB    SUNNY     97  73  46 S13       29.86F HX 107
FT BELVOIR     FAIR      98  68  37 S9        29.86F HX 103
QUANTICO       FAIR      99  67  35 SW15G22   29.87F HX 103
COLLEGE PARK*  FAIR      97  73  46 S9        29.85F HX 107
LEESBURG*      FAIR      99  72  41 SW9G28    29.88F HX 107
MANASSAS*      SUNNY     97  70  41 SW8       29.86F HX 103
GAITHERSBURG*  CLOUDY    97  73  46 S6        29.90F HX 107

$$

MDZ006>007-011-014-252100-
BALTIMORE METRO

CITY           SKY/WX    TMP DP  RH WIND       PRES   REMARKS
BWI AIRPORT    PTSUNNY   98  72  42 SW9G17    29.84F HX 107
MD SCIENCE CTR   N/A    101  71  38 MISG      29.84F HX 109
MARTIN STATE   MOSUNNY   93  82  70 SE14      29.85F HX 117
ANNAPOLIS      SUNNY     92  79  65 SE15      29.85F HX 108
FORT MEADE*    SUNNY     93  73  52 SW5       29.87F HX 102

$$

MDZ012-015-019>023-252100-
MARYLAND EASTERN SHORE

CITY           SKY/WX    TMP DP  RH WIND       PRES   REMARKS
OCEAN CITY     SUNNY     92  76  59 S8        29.89F HX 104
SALISBURY      SUNNY     95  77  55 SW12G18   29.89F HX 109
BAY BRIDGE AP* SUNNY     95  77  55 S9        29.86F HX 109
CAMBRIDGE*     SUNNY     95  72  46 S8        29.87F HX 103
EASTON*        MOSUNNY   95  81  63 SW9       29.91F HX 115

$$

MDZ017>025-252100-
SOUTHERN MARYLAND

CITY           SKY/WX    TMP DP  RH WIND       PRES   REMARKS
PATUXENT RIVER MOSUNNY  100  66  32 SW14G22   29.87F HX 104
ST INIGOES     SUNNY    100  67  33 SW13      29.87F HX 105
LEONARDTOWN*   SUNNY     99  64  32 W14       29.89F HX 101

$$

MDZ003>005-252100-
NORTH CENTRAL MARYLAND

CITY           SKY/WX    TMP DP  RH WIND       PRES   REMARKS
FREDERICK*     MOSUNNY   99  73  44 SW13      29.88F HX 109
HAGERSTOWN APT CLOUDY    90  73  57 E8        29.87F HX  98

$$

MDZ501>502-252100-
WESTERN MARYLAND

CITY           SKY/WX    TMP DP  RH WIND       PRES   REMARKS
OAKLAND*       CLOUDY    75  64  69 SW9       30.06F
CUMBERLAND*    CLOUDY    86  68  54 W9        29.92F

$$

VAZ025>031-252100-
SHENANDOAH VALLEY

CITY           SKY/WX    TMP DP  RH WIND       PRES   REMARKS
WINCHESTER*    CLOUDY    82  68  61 E3G17     29.90R
FRONT ROYAL*   FAIR      97  70  41 S9        29.88F HX 103
LURAY*         FAIR      95  68  41 SW9       29.92F HX  99
NEW MARKET*    FAIR     N/A N/A N/A W10       29.90F
STAUNTON*      FAIR      93  73  52 SW10      29.96F HX 101
WAYNESBORO*    FAIR      91  69  48 W5        29.98F HX  96

$$

WVZ021-048>050-054>055-252100-
EASTERN WEST VIRGINIA PANHANDLE

CITY           SKY/WX    TMP DP  RH WIND       PRES   REMARKS
MARTINSBURG    PTSUNNY   89  70  53 S15G31    29.86F HX  94
PETERSBURG*    FAIR      99  69  37 W10       29.90F HX 105

$$

VAZ036>039-050-252100-
CENTRAL FOOTHILLS

CITY           SKY/WX    TMP DP  RH WIND       PRES   REMARKS
CHARLOTTESVILL FAIR      98  72  42 S12G18    29.91F HX 107
CULPEPER*      FAIR      96  73  45 SW9       29.88F HX 105
ORANGE*          N/A     97  70  41 S8        29.92F HX 103
GORDONSVILLE*  FAIR      96  74  49 SW10      29.90F HX 106
WARRENTON*     FAIR      99  63  30 S10       29.87F HX 101

$$

VAZ055>057-252100-
NORTH AND CENTRAL PIEDMONT

CITY           SKY/WX    TMP DP  RH WIND       PRES   REMARKS
FREDERICKSBRG*   N/A     99  72  41 SW12      29.88F HX 108
STAFFORD*      FAIR      98  68  36 SW9G17    29.92F HX 103

$$

NCZ024-NYZ072-PAZ021-071-VAZ022-071-252100-
OTHER REGIONAL OBSERVATIONS

CITY           SKY/WX    TMP DP  RH WIND       PRES   REMARKS
NEW YORK CITY  CLOUDY    91  74  57 VRB6      29.84F HX 100
PHILADELPHIA   PTSUNNY   96  75  50 SW16      29.84F HX 108
PITTSBURGH     CLOUDY    89  68  49 NW16G25   29.93F HX  93
ROANOKE        PTSUNNY   93  71  48 S12       30.00F HX 100
RICHMOND       CLOUDY    94  74  52 SW10      29.91F HX 104
RALEIGH        PTSUNNY   96  73  47 W8        29.97F HX 105

$$

ANZ530>537-252100-
MARINE OBSERVATIONS

STATION/POSITION TIME  TEMP    WIND        PRES
                       AIR SEA DIR/SP/G
                 (UTC) (F)     (DEG/KT/KT) (MB)
THOMAS PT LIGHT  2000   89 85  170/ 13/ 14 1012.3F
BALT KEY BRIDGE  1948   95     170/  7/ 10 1010.4F
COVE POINT       1948   96     240/ 11/ 17 1012.1F
LEWISETTA        1948   96 89  250/ 11/ 17 1011.8F
SOLOMONS ISLAND  1948   95 84  240/ 16/ 18   N/A
PINEY POINT      1948          250/  5/  7   N/A

$$




USA.gov is the U.S. government's official web portal to all federal, state and local government web resources and services.